TimeEDT,TemperatureF,Dew PointF,Humidity,Sea Level PressureIn,VisibilityMPH,Wind Direction,Wind SpeedMPH,Gust SpeedMPH,PrecipitationIn,Events,Conditions,WindDirDegrees,DateUTC
12:15 AM,51.8,39.2,62,30.17,10.0,NNW,6.9,-,N/A,,Clear,340,2013-09-06 04:15:00
12:35 AM,53.6,39.2,58,30.18,10.0,NNW,8.1,-,N/A,,Clear,340,2013-09-06 04:35:00
12:55 AM,53.6,39.2,58,30.18,10.0,NNW,8.1,-,N/A,,Clear,340,2013-09-06 04:55:00
1:15 AM,51.8,39.2,62,30.18,10.0,NNE,5.8,-,N/A,,Clear,20,2013-09-06 05:15:00
1:35 AM,51.8,39.2,62,30.19,10.0,NNE,6.9,-,N/A,,Clear,30,2013-09-06 05:35:00
1:55 AM,51.8,39.2,62,30.19,10.0,NNE,10.4,-,N/A,,Clear,20,2013-09-06 05:55:00
2:15 AM,51.8,39.2,62,30.20,10.0,NNE,11.5,-,N/A,,Clear,20,2013-09-06 06:15:00
2:35 AM,51.8,39.2,62,30.20,10.0,NE,9.2,-,N/A,,Clear,40,2013-09-06 06:35:00
2:55 AM,51.8,39.2,62,30.20,10.0,NNE,10.4,-,N/A,,Clear,30,2013-09-06 06:55:00
3:15 AM,51.8,39.2,62,30.20,10.0,NNE,10.4,-,N/A,,Clear,30,2013-09-06 07:15:00
3:35 AM,51.8,39.2,62,30.20,10.0,NNE,10.4,-,N/A,,Clear,30,2013-09-06 07:35:00
3:55 AM,51.8,39.2,62,30.21,10.0,NNE,11.5,-,N/A,,Clear,30,2013-09-06 07:55:00
4:15 AM,51.8,39.2,62,30.21,10.0,NNE,11.5,-,N/A,,Clear,30,2013-09-06 08:15:00
4:35 AM,50.0,37.4,62,30.22,10.0,North,8.1,-,N/A,,Clear,10,2013-09-06 08:35:00
4:55 AM,48.2,39.2,71,30.22,10.0,Calm,Calm,-,N/A,,Clear,0,2013-09-06 08:55:00
5:15 AM,44.6,35.6,71,30.23,10.0,NE,4.6,-,N/A,,Clear,40,2013-09-06 09:15:00
5:35 AM,48.2,37.4,66,30.22,10.0,NNE,5.8,-,N/A,,Clear,30,2013-09-06 09:35:00
5:45 AM,48.2,37.4,66,30.22,10.0,NE,5.8,-,N/A,,Clear,50,2013-09-06 09:45:00
6:45 AM,46.4,37.4,71,30.24,10.0,NNE,6.9,-,N/A,,Clear,30,2013-09-06 10:45:00
7:45 AM,51.8,39.2,62,30.26,10.0,NNE,8.1,-,N/A,,Clear,30,2013-09-06 11:45:00
8:45 AM,55.4,41.0,58,30.27,10.0,NE,6.9,-,N/A,,Clear,40,2013-09-06 12:45:00
9:50 AM,57.2,39.2,51,30.27,10.0,NE,6.9,-,N/A,,Clear,50,2013-09-06 13:50:00
10:45 AM,60.8,39.2,45,30.26,10.0,North,5.8,-,N/A,,Clear,350,2013-09-06 14:45:00
11:45 AM,62.6,39.2,42,30.27,10.0,North,5.8,-,N/A,,Clear,10,2013-09-06 15:45:00
12:45 PM,62.6,42.8,48,30.25,10.0,Variable,3.5,-,N/A,,Clear,0,2013-09-06 16:45:00
1:55 PM,64.4,42.8,45,30.24,10.0,Variable,4.6,-,N/A,,Partly Cloudy,0,2013-09-06 17:55:00
2:55 PM,66.2,42.8,43,30.22,10.0,Variable,3.5,-,N/A,,Partly Cloudy,0,2013-09-06 18:55:00
3:55 PM,66.2,42.8,43,30.21,10.0,Variable,5.8,-,N/A,,Clear,0,2013-09-06 19:55:00
4:50 PM,66.2,42.8,43,30.19,10.0,West,4.6,-,N/A,,Clear,270,2013-09-06 20:50:00
6:45 PM,64.4,42.8,45,30.19,0.0,WNW,4.6,-,N/A,,Clear,300,2013-09-06 22:45:00
7:45 PM,55.4,42.8,63,30.18,10.0,Calm,Calm,-,N/A,,Clear,0,2013-09-06 23:45:00
9:15 PM,50.0,42.8,76,30.18,10.0,Calm,Calm,-,N/A,,Clear,0,2013-09-07 01:15:00
9:35 PM,48.2,42.8,82,30.18,10.0,Calm,Calm,-,N/A,,Clear,0,2013-09-07 01:35:00
9:55 PM,48.2,41.0,76,30.17,10.0,Calm,Calm,-,N/A,,Clear,0,2013-09-07 01:55:00
10:15 PM,46.4,39.2,76,30.17,10.0,Calm,Calm,-,N/A,,Clear,0,2013-09-07 02:15:00
10:35 PM,46.4,39.2,76,30.17,10.0,Calm,Calm,-,N/A,,Clear,0,2013-09-07 02:35:00
10:55 PM,48.2,39.2,71,30.17,10.0,Calm,Calm,-,N/A,,Clear,0,2013-09-07 02:55:00
11:15 PM,48.2,41.0,76,30.16,10.0,Calm,Calm,-,N/A,,Clear,0,2013-09-07 03:15:00
11:35 PM,48.2,41.0,76,30.15,10.0,Calm,Calm,-,N/A,,Clear,0,2013-09-07 03:35:00
11:55 PM,46.4,39.2,76,30.15,10.0,Calm,Calm,-,N/A,,Clear,0,2013-09-07 03:55:00